Location: San Gennaro Vesuviano
(40.8833°N, 14.5333°E)
Time: 11:15:34
(UTC+00:00)

FALCON 9 DEB - Pass Details

Date: 22 April 2021
Orbit: 364 x 382 km, 53.0° (Epoch: 11 May)

Event Time Altitude Azimuth Distance (km) Brightness Sun altitude
Rises 19:18:09 0° 245° (WSW) 2,192 7.1 -16.0°
Reaches altitude 10° 19:20:14 10° 252° (WSW) 1,348 6.1 -16.4°
Maximum altitude 19:23:07 43° 326° (NW) 523 4.0 -16.8°
Drops below altitude 10° 19:26:02 10° 40° (NE) 1,358 5.6 -17.3°
Enters shadow 19:26:30 - 43° (NE) 1,546 5.8 -17.4°
